[[{"header":{"parameterUnit":"m.s-1","parameterCategory":1,"la1":30.2991,"la2":30.254,"lo1":-89.0895,"lo2":-89.0444,"dy":0.0017,"dx":0.0017,"nx":28,"ny":28,"refTime":"2024-07-08T03:00:00:Z","depth":0,"parameterNumber":2,"parameterNumberName":"U-component_of_WINDS"},"data":[0,0,0,0,0,0,0,0,0,0,0,0,0,0,0,0,0,0,0,0,0,0,0,0,0,0,0,0,0,0,0,0,0,0,0,0,0,0,0,0,0,0,0,0,0,0,0,0,0,0,0,0,0,0,0,0,0,0,-1.6278,-1.6277,0,-1.6186,-1.6185,-1.6184,-1.6092,-1.6091,-1.609,-1.6089,-1.5994,-1.5992,-1.5991,0,0,0,0,0,0,0,0,0,0,0,0,0,-1.6376,-1.6375,-1.6278,-1.6277,-1.6276,-1.6186,-1.6185,-1.6183,-1.6093,-1.6091,-1.609,-1.6088,-1.5994,-1.5992,-1.5991,0,0,0,0,0,0,0,0,0,0,0,0,0,-1.6314,-1.6374,-1.6278,-1.622,-1.6214,-1.6186,-1.6185,-1.6183,-1.6093,-1.6091,-1.6089,-1.6088,-1.5995,-1.5993,-1.5991,-1.6013,0,0,-1.5984,-1.5983,0,0,0,0,0,0,0,0,-1.6317,-1.631,-1.623,-1.6224,-1.6217,-1.6149,-1.6184,-1.6126,-1.6093,-1.6139,-1.6089,-1.6087,-1.6047,-1.604,-1.6027,-1.6009,-1.6005,-1.5984,-1.5983,-1.5982,-1.5981,0,0,0,0,0,0,0,-1.6322,-1.6314,-1.6242,-1.6228,-1.6221,-1.6198,-1.6187,-1.6173,-1.6104,-1.6135,-1.6128,-1.6118,-1.6043,-1.6029,-1.6024,-1.6003,-1.5984,-1.5982,-1.5981,-1.598,-1.6,-1.6001,0,0,0,0,0,0,-1.6335,-1.6318,-1.6244,-1.6239,-1.6264,-1.6198,-1.6186,-1.6172,-1.6104,-1.6092,-1.612,-1.6114,-1.6034,-1.6026,-1.602,-1.6042,-1.5982,-1.598,-1.5978,-1.5998,-1.6,-1.6002,0,0,0,0,0,0,-1.6337,-1.6329,-1.6248,-1.6276,-1.6264,-1.6198,-1.6184,-1.6172,-1.6158,-1.6093,-1.608,-1.6118,-1.6032,-1.6023,-1.6016,-1.6038,-1.5979,-1.5977,-1.5996,-1.5999,-1.6001,-1.6087,0,0,0,0,0,0,-1.6341,-1.6331,-1.6339,-1.6277,-1.6263,-1.6246,-1.6185,-1.6171,-1.6154,-1.6146,-1.6088,-1.6076,-1.603,-1.602,-1.6014,-1.6034,-1.5975,-1.5994,-1.5997,-1.6,-1.6082,-1.6093,-1.6101,0,0,0,0,0,-1.6344,-1.6367,-1.634,-1.6331,-1.6272,-1.6247,-1.6239,-1.6185,-1.6156,-1.6164,-1.6122,-1.6078,-1.6037,-1.602,-1.6012,-1.6032,-1.5992,-1.5996,-1.6,-1.6078,-1.6091,-1.6101,0,0,0,0,0,0,-1.6432,-1.6357,-1.6327,-1.633,-1.6296,-1.6232,-1.624,-1.62,-1.6174,-1.6167,-1.6101,-1.6089,-1.6089,-1.6059,-1.6042,-1.6051,-1.6008,-1.6011,-1.607,-1.6081,-1.6091,-1.6098,-1.5973,0,0,0,0,0,-1.6452,-1.6438,-1.6374,-1.6383,-1.6367,-1.6307,-1.6294,-1.6255,-1.6217,-1.6202,-1.616,-1.6125,-1.6103,-1.6091,-1.6067,-1.6078,-1.6063,-1.6088,-1.6097,-1.6106,-1.6109,-1.6112,-1.6122,-1.6015,-1.6015,-1.6015,0,0,-1.6493,-1.645,-1.6445,-1.6399,-1.6368,-1.6355,-1.6295,-1.6284,-1.6274,-1.62,-1.6191,-1.6159,-1.6115,-1.6117,-1.6115,-1.6092,-1.6135,-1.6111,-1.6118,-1.6116,-1.6117,-1.6127,-1.6136,-1.6018,-1.6018,-1.6017,0,0,-1.656,-1.6527,-1.653,-1.6501,-1.6454,-1.6414,-1.6415,-1.6358,-1.6333,-1.6323,-1.6268,-1.6255,-1.6219,-1.619,-1.6171,-1.6228,-1.6187,-1.6223,-1.6273,-1.6277,-1.6285,-1.6293,-1.6313,-1.6321,-1.6226,-1.6226,-1.6226,0,-1.6616,-1.6595,-1.6537,-1.653,-1.6511,-1.6444,-1.6447,-1.6421,-1.637,-1.6359,-1.6334,-1.6288,-1.6254,-1.6248,-1.6262,-1.6249,-1.6248,-1.6229,-1.6289,-1.6295,-1.6301,-1.632,-1.6328,-1.6231,-1.623,-1.623,-1.6229,0,-1.6666,-1.6653,-1.6661,-1.6614,-1.6596,-1.6594,-1.6536,-1.6525,-1.6488,-1.6451,-1.6441,-1.6397,-1.6364,-1.636,-1.6324,-1.6349,-1.6336,-1.6301,-1.6257,-1.6317,-1.6333,-1.634,-1.6238,-1.6236,-1.6234,-1.6233,0,0,-1.6786,-1.6707,-1.6711,-1.6689,-1.6633,-1.6622,-1.6617,-1.6585,-1.6576,-1.6544,-1.6538,-1.651,-1.6477,-1.6455,-1.6415,-1.6419,-1.6467,-1.6383,-1.6381,-1.64,-1.6492,-1.6519,-1.6528,-1.6439,-1.644,-1.6441,-1.6496,0,-1.6844,-1.6832,-1.678,-1.6782,-1.6769,-1.6705,-1.6701,-1.6666,-1.6631,-1.6615,-1.6576,-1.6557,-1.6515,-1.6502,-1.6502,-1.6461,-1.6484,-1.6456,-1.6433,-1.6433,-1.6446,-1.6537,-1.6565,-1.6618,-1.6502,-1.6503,-1.6503,0,-1.691,-1.6882,-1.6883,-1.6828,-1.6821,-1.6818,-1.6784,-1.6769,-1.6729,-1.6703,-1.6679,-1.6634,-1.6626,-1.6585,-1.6572,-1.6554,-1.6541,-1.652,-1.652,-1.6516,-1.6472,-1.6535,-1.6634,-1.6642,-1.6513,-1.6512,-1.6512,0,-1.6998,-1.696,-1.6956,-1.6939,-1.6874,-1.6874,-1.6847,-1.6805,-1.6789,-1.676,-1.6749,-1.6719,-1.6703,-1.6681,-1.6629,-1.6604,-1.6622,-1.6577,-1.66,-1.6602,-1.6607,-1.6607,-1.6705,-1.6599,-1.6599,-1.6599,-1.6599,0,-1.7068,-1.7072,-1.6994,-1.6992,-1.6994,-1.6934,-1.6938,-1.6905,-1.6868,-1.6858,-1.6801,-1.6793,-1.6725,-1.6709,-1.6669,-1.6665,-1.6658,-1.6636,-1.6626,-1.6641,-1.6644,-1.6632,-1.6627,-1.6601,-1.66,-1.66,-1.66,0,-1.7166,-1.7115,-1.7106,-1.7046,-1.7031,-1.7035,-1.6983,-1.6979,-1.694,-1.6928,-1.6922,-1.6862,-1.684,-1.6787,-1.6751,-1.6724,-1.673,-1.671,-1.6744,-1.6737,-1.6764,-1.6762,-1.6858,-1.6867,-1.6755,-1.6756,-1.6757,0,-1.7215,-1.7216,-1.7156,-1.7145,-1.7121,-1.7104,-1.7088,-1.7029,-1.7014,-1.6968,-1.6969,-1.6943,-1.6919,-1.6888,-1.6841,-1.6813,-1.6792,-1.6827,-1.6787,-1.6803,-1.6793,-1.6793,-1.6793,-1.6836,-1.6838,-1.6839,-1.684,0,-1.7306,-1.728,-1.7259,-1.7229,-1.7211,-1.7184,-1.7154,-1.7149,-1.7083,-1.7069,-1.7046,-1.7028,-1.6991,-1.6966,-1.6931,-1.6903,-1.6861,-1.6853,-1.6857,-1.6873,-1.6893,-1.6883,-1.6768,-1.6851,-1.685,-1.6849,-1.6849,-1.6848,-1.738,-1.7379,-1.7336,-1.7314,-1.7286,-1.7259,-1.7252,-1.7213,-1.7193,-1.7159,-1.7125,-1.7106,-1.7065,-1.7014,-1.6989,-1.6973,-1.6951,-1.6957,-1.6959,-1.6961,-1.6968,-1.6896,-1.6967,-1.6966,-1.6966,-1.6966,-1.6965,0,-1.7469,-1.7439,-1.7419,-1.7379,-1.7362,-1.7323,-1.7288,-1.7277,-1.7261,-1.7226,-1.7204,-1.7178,-1.7154,-1.7105,-1.7076,-1.7073,-1.7052,-1.7067,-1.7067,-1.7061,-1.6989,-1.6989,-1.7084,-1.7084,-1.7084,-1.7084,-1.7084,-1.7084,-1.7513,-1.7508,-1.7477,-1.7458,-1.7427,-1.7408,-1.7391,-1.7366,-1.7339,-1.7312,-1.7292,-1.726,-1.722,-1.7188,-1.7163,-1.715,-1.7142,-1.7163,-1.7143,-1.7077,-1.7066,-1.7055,-1.7054,-1.7161,-1.7162,-1.7215,-1.7216,-1.7216]},{"header":{"parameterUnit":"m.s-1","parameterCategory":1,"la1":30.2991,"la2":30.254,"lo1":-89.0895,"lo2":-89.0444,"dy":0.0017,"dx":0.0017,"nx":28,"ny":28,"refTime":"2024-07-08T03:00:00:Z","depth":0,"parameterNumber":3,"parameterNumberName":"V-component_of_WINDS"},"data":[0,0,0,0,0,0,0,0,0,0,0,0,0,0,0,0,0,0,0,0,0,0,0,0,0,0,0,0,0,0,0,0,0,0,0,0,0,0,0,0,0,0,0,0,0,0,0,0,0,0,0,0,0,0,0,0,0,0,4.2725,4.2726,0,4.275,4.275,4.2751,4.2701,4.27,4.2698,4.2696,4.2719,4.2721,4.2723,0,0,0,0,0,0,0,0,0,0,0,0,0,4.2632,4.2634,4.2725,4.2726,4.2726,4.275,4.2751,4.2751,4.2701,4.27,4.2698,4.2696,4.2718,4.2721,4.2723,0,0,0,0,0,0,0,0,0,0,0,0,0,4.2666,4.2634,4.2725,4.2704,4.2703,4.275,4.2751,4.2751,4.2702,4.2699,4.2697,4.2695,4.2717,4.272,4.2723,4.2791,0,0,4.2733,4.2734,0,0,0,0,0,0,0,0,4.2664,4.2669,4.2707,4.2706,4.2704,4.272,4.2726,4.2764,4.2703,4.2702,4.2696,4.2694,4.2721,4.2724,4.2734,4.2792,4.2793,4.2733,4.2735,4.2737,4.2737,0,0,0,0,0,0,0,4.2662,4.2668,4.2735,4.2708,4.2706,4.2693,4.2695,4.2733,4.2725,4.2702,4.2698,4.2702,4.272,4.2731,4.2734,4.2794,4.2733,4.2736,4.2738,4.2739,4.2908,4.291,0,0,0,0,0,0,4.2663,4.2666,4.2734,4.2736,4.2678,4.2696,4.2699,4.2717,4.2724,4.2723,4.2704,4.27,4.2726,4.273,4.2734,4.2813,4.2736,4.2739,4.2741,4.2905,4.2908,4.2911,0,0,0,0,0,0,4.2661,4.2669,4.2733,4.27,4.2707,4.27,4.2722,4.2719,4.273,4.2726,4.2724,4.2717,4.2725,4.273,4.2777,4.2813,4.2741,4.2744,4.2902,4.2906,4.291,4.2972,0,0,0,0,0,0,4.2658,4.2669,4.2695,4.2701,4.2709,4.2777,4.2724,4.2721,4.2736,4.273,4.2738,4.2736,4.2723,4.2773,4.278,4.2816,4.2746,4.2899,4.2904,4.2908,4.2967,4.2978,4.2987,0,0,0,0,0,4.2655,4.2712,4.2697,4.2705,4.2743,4.2779,4.2784,4.2769,4.2739,4.2765,4.2762,4.2736,4.2808,4.2778,4.2786,4.2823,4.2896,4.2902,4.2908,4.2962,4.2975,4.2987,0,0,0,0,0,0,4.2709,4.2712,4.2696,4.2756,4.2768,4.2771,4.2803,4.2783,4.2803,4.2797,4.2776,4.2778,4.2829,4.2831,4.2797,4.2889,4.2847,4.2855,4.2886,4.2898,4.2908,4.2906,4.2749,0,0,0,0,0,4.2728,4.2759,4.2759,4.2812,4.2819,4.2811,4.2826,4.2813,4.2824,4.2829,4.2829,4.284,4.2865,4.2882,4.2905,4.2967,4.2967,4.2997,4.3007,4.3015,4.3021,4.3053,4.3066,4.293,4.293,4.293,0,0,4.2768,4.2773,4.2793,4.2823,4.2831,4.2862,4.2815,4.285,4.2872,4.2833,4.2878,4.2879,4.289,4.2945,4.2969,4.2948,4.3059,4.3022,4.3029,4.3031,4.3061,4.3073,4.3085,4.2934,4.2933,4.2933,0,0,4.2855,4.2863,4.2907,4.2916,4.2929,4.2922,4.2933,4.2939,4.2939,4.2984,4.2955,4.2981,4.3024,4.3033,4.3043,4.3133,4.3109,4.3141,4.3193,4.3225,4.3235,4.3244,4.3275,4.3287,4.3148,4.3148,4.3148,0,4.2902,4.2949,4.2933,4.297,4.2983,4.295,4.2994,4.3003,4.3022,4.3032,4.3008,4.3062,4.3067,4.3123,4.3145,4.3154,4.3165,4.314,4.3235,4.3244,4.3253,4.3282,4.3294,4.3152,4.3151,4.3151,4.3151,0,4.3005,4.3038,4.3072,4.3092,4.3109,4.315,4.3138,4.3158,4.3143,4.3139,4.3185,4.3189,4.3212,4.3225,4.3211,4.3278,4.3265,4.3239,4.3196,4.327,4.3297,4.3308,4.3157,4.3156,4.3155,4.3154,0,0,4.3127,4.3138,4.315,4.3158,4.317,4.3194,4.3232,4.3255,4.3272,4.3286,4.3316,4.3354,4.333,4.3341,4.3328,4.3356,4.3425,4.3326,4.3326,4.3343,4.3499,4.3517,4.3531,4.341,4.3412,4.3414,4.3497,0,4.3213,4.328,4.3266,4.3331,4.336,4.3329,4.3362,4.3372,4.3369,4.3392,4.3389,4.3415,4.3382,4.3389,4.3415,4.3411,4.3456,4.3405,4.3437,4.3438,4.3434,4.3545,4.3565,4.3644,4.3508,4.351,4.3511,0,4.3322,4.334,4.3409,4.3414,4.3426,4.3456,4.3476,4.3499,4.3509,4.3505,4.3518,4.3499,4.3535,4.3493,4.3543,4.3509,4.3521,4.3521,4.3524,4.3525,4.3478,4.3548,4.3668,4.368,4.3528,4.3526,4.3525,0,4.3402,4.3444,4.349,4.3498,4.3507,4.3528,4.3533,4.354,4.3555,4.3572,4.358,4.3601,4.3612,4.3628,4.3615,4.3586,4.3666,4.3623,4.3662,4.3663,4.368,4.3678,4.3802,4.369,4.3689,4.3689,4.3689,0,4.3498,4.3541,4.3526,4.3555,4.3601,4.3584,4.363,4.3631,4.3638,4.3664,4.3639,4.3664,4.3646,4.367,4.3659,4.3701,4.3707,4.3703,4.37,4.3705,4.3705,4.3712,4.3705,4.3692,4.3692,4.3691,4.3691,0,4.3596,4.3588,4.3636,4.364,4.3642,4.3675,4.3678,4.3704,4.3699,4.3733,4.374,4.3732,4.3758,4.3747,4.3775,4.3768,4.3821,4.3811,4.3818,4.3815,4.3854,4.385,4.3986,4.4002,4.388,4.3881,4.3882,0,4.3657,4.3689,4.3697,4.3713,4.372,4.3747,4.3761,4.3746,4.3762,4.3775,4.3799,4.3823,4.3842,4.3885,4.3881,4.3902,4.3891,4.3937,4.3894,4.3898,4.389,4.3888,4.3891,4.3946,4.3947,4.3948,4.3949,0,4.3767,4.3761,4.3784,4.3805,4.3824,4.384,4.3853,4.3868,4.3853,4.3872,4.3899,4.3913,4.3942,4.3966,4.3984,4.3987,4.3965,4.3963,4.3973,4.3978,4.398,4.3978,4.384,4.396,4.3959,4.3958,4.3957,4.3957,4.3847,4.3874,4.3883,4.3909,4.3918,4.3931,4.3955,4.3953,4.3976,4.3998,4.3987,4.4018,4.4026,4.4049,4.4055,4.4078,4.406,4.4074,4.4078,4.4081,4.4086,4.3978,4.4081,4.4081,4.4081,4.408,4.408,0,4.3955,4.3959,4.3983,4.4003,4.4023,4.4002,4.4016,4.4033,4.4061,4.4071,4.409,4.412,4.4143,4.4141,4.4162,4.4181,4.4172,4.4187,4.4185,4.4186,4.4102,4.409,4.4194,4.4194,4.4194,4.4194,4.4194,4.4194,4.4013,4.4056,4.4052,4.4099,4.4103,4.4133,4.4143,4.4154,4.4162,4.4197,4.4217,4.4215,4.422,4.4241,4.4261,4.426,4.4268,4.4287,4.4282,4.4203,4.4192,4.4181,4.417,4.4289,4.4289,4.4364,4.4364,4.4365]}]]